sat.trackr.live / text

‹ back to catalog

VINASAT-2

NORAD 38332 · 2012-023B

PAYLOAD ACTIVE UNKNOWN

§ Identity

Operator
Country
VTNM
Launch date
2012-05-15
Launch site
FRGUI
Launch vehicle
Mass (kg)
RCS (m²)
26.48

Purposes: comms

External: N2YO · Heavens-Above · Gunter

§ Orbital elements

Epoch: 2026-05-25T04:22:06.167712Z

Period
1,436.09 min
Inclination
0.0310°
Eccentricity
0.0002472
Mean motion
1.00272036 rev/d
Perigee alt
35,776.1 km
Apogee alt
35,796.9 km
Semi-major
42,164.7 km
B*
0.0000e+0
RAAN
44.0355°
Arg perigee
31.1304°
Mean anomaly
4.9827°
Rev number
4,642

§ Raw data

VINASAT-21 38332U 12023B   26145.18201583 -.00000331  00000+0  00000+0 0  99992 38332   0.0310  44.0355 0002472  31.1304   4.9827  1.00272036 46420

JSON: /api/v1/satellites/38332 · /tle

For live sub-satellite position, see the globe view (requires WebGL).

§ Visibility from observer

Set your observer location to see the next 7 days of passes ≥ 10°. The values pass through the URL so the page stays shareable.

No JS? Fill the form by hand. The geolocation button needs JavaScript.